Location: Les Thiberg�res
(47.8554°N, 1.0978°W)
Time: 03:41:35
(UTC+00:00)

STARLINK-1171 - Pass Details

Date: 17 February 2020
Orbit: 554 x 556 km, 53.0° (Epoch: 29 March)

Event Time Altitude Azimuth Distance (km) Brightness Sun altitude
Exits shadow 04:49:53 42° 2° (N) 795 4.4 -23.8°
Drops below altitude 10° 04:53:36 10° 64° (ENE) 1,827 7.3 -23.2°
Enters shadow 05:49:58 -71° 268° (W) 12,614 10.4 -13.7°
Maximum altitude 06:29:48 46° 12° (NNE) 742 4.3 -7.1°
